Wind_Speed
3 2 1 1 0 0 1 1 2 3 3 4 4 4 3 2 1 2 3 4 4 4 6 9 8 7 6 7 5 10 9 4 11 5 13 8 15 5 2 6 3 1 11 13 12
5 4 4 3 2 2 1 1 1 0 0 1 2 3 4 2 2 2 0 1 0 2 5 9 14 12 8 7 10 8 8 9 7 8 10 7 2 6 2 3 5 5 5 8 11
7 7 6 5 4 3 3 2 2 2 2 2 1 1 2 3 4 2 4 4 1 2 4 6 9 12 9 3 3 15 13 6 10 8 9 10 2 7 8 6 5 9 7 6 8
11 9 8 7 6 6 5 4 3 3 3 4 4 3 2 4 2 3 4 4 2 3 7 9 12 9 4 4 9 1 4 4 5 4 6 7 6 4 5 5 2 8 8 5 5
13 11 11 10 8 8 7 6 5 4 4 5 5 6 7 6 9 2 1 2 3 4 7 13 12 8 10 6 8 8 5 2 5 3 6 6 7 3 5 2 0 6 7 6 5
15 14 13 12 11 10 8 8 7 6 5 6 5 6 9 12 9 7 4 3 0 4 11 12 3 8 5 3 4 5 1 7 5 4 6 2 9 5 5 1 4 8 9 8 8
16 16 15 14 13 12 10 10 9 8 7 7 6 7 8 12 12 9 9 8 6 1 9 5 6 10 6 5 3 7 6 9 14 7 5 8 9 8 3 4 6 6 11 8 7
17 17 16 15 14 13 12 11 10 9 8 9 8 8 9 7 9 6 9 8 7 5 2 2 1 16 2 1 3 6 8 15 12 15 7 3 4 10 11 6 10 7 5 7 10
17 18 17 16 16 15 13 12 11 10 10 9 9 9 9 7 7 7 7 8 7 8 6 3 2 4 5 7 10 10 18 17 7 12 2 6 4 9 8 9 11 8 8 11 14
16 17 17 17 17 16 13 12 12 11 11 10 9 6 6 4 8 8 7 8 8 7 8 6 5 4 2 6 17 14 11 12 13 6 8 5 6 10 10 6 9 14 11 11 17
17 16 15 15 16 15 13 12 12 13 15 12 10 10 4 6 8 6 7 7 9 7 7 4 4 7 5 11 12 5 9 11 7 1 8 9 11 6 9 9 11 13 12 10 12
19 17 15 14 13 12 12 14 14 15 16 15 18 15 10 13 10 8 9 10 9 8 4 7 16 9 10 8 9 7 7 9 7 8 6 9 12 12 13 15 10 12 12 11 9
21 19 15 15 14 13 13 14 11 13 19 20 17 19 15 19 14 9 10 10 7 4 10 12 8 7 6 7 7 6 8 12 11 10 6 11 22 21 17 15 13 7 8 9 10
19 20 18 16 15 13 12 13 12 10 10 22 17 21 18 16 17 15 16 12 15 13 8 14 9 9 7 10 8 11 10 7 8 9 15 18 20 20 25 22 14 12 10 13 12
17 18 19 18 16 16 17 13 9 8 3 7 16 13 14 23 6 15 19 13 14 11 12 16 10 12 8 8 7 13 8 9 8 12 16 19 19 10 18 14 22 13 14 16 15
16 16 18 17 16 18 16 10 11 8 7 3 22 17 16 20 16 9 20 19 14 13 15 19 13 12 11 7 10 9 8 9 12 16 17 19 8 2 2 6 22 12 19 22 19
15 16 17 17 17 17 16 16 12 6 15 11 15 16 19 21 19 15 21 20 22 14 17 15 14 9 10 12 12 9 8 8 5 4 7 7 6 8 5 13 8 18 24 21 19
14 15 17 17 18 18 18 20 6 9 17 13 15 15 21 25 20 19 20 23 21 19 15 15 16 18 18 18 11 14 9 12 3 2 6 8 9 2 18 15 16 16 14 18 9
13 14 15 17 18 18 20 21 17 13 6 16 21 25 22 19 19 25 25 22 22 22 26 11 19 16 24 14 13 14 12 12 20 19 16 16 3 13 18 15 14 8 13 12 14
10 11 14 19 17 21 23 24 27 21 13 11 12 18 10 20 27 23 26 20 23 24 20 22 21 1 20 16 9 11 12 10 8 2 5 9 2 9 12 8 21 17 20 21 8
7 8 12 12 18 22 26 28 25 18 6 10 9 4 10 16 23 30 25 27 16 22 24 20 16 15 10 12 10 12 13 12 17 14 4 3 9 13 9 11 25 31 22 27 18
11 7 6 6 16 24 29 31 23 18 4 19 17 8 7 14 10 25 20 22 17 21 25 28 15 18 15 12 8 9 13 17 5 10 16 14 5 3 1 6 5 18 19 28 20
15 6 4 8 14 23 22 23 22 18 5 12 11 9 5 12 4 5 14 7 12 20 22 14 15 13 16 15 11 11 7 14 17 20 23 12 11 9 3 5 5 11 21 27 17
13 6 8 12 18 15 15 15 16 14 13 13 10 11 11 12 6 2 11 2 8 12 12 9 9 5 13 6 5 9 13 10 15 18 22 20 4 15 12 7 7 4 3 13 12
12 8 4 10 3 21 17 12 8 17 15 18 13 11 6 9 8 13 5 3 5 12 11 12 14 14 11 11 11 16 19 20 16 23 24 20 14 14 14 16 24 21 19 10 14
15 7 11 9 2 6 15 12 8 8 11 10 13 13 9 8 8 16 10 7 6 7 11 18 8 12 17 14 15 19 21 23 25 25 22 21 7 15 11 9 12 16 23 18 19
15 10 12 5 4 3 13 9 14 6 13 16 12 13 13 14 13 5 7 10 7 7 10 3 12 15 19 14 15 19 20 23 23 16 15 20 13 14 7 4 10 13 12 20 20
Wind_Direction
200 195 233 266 254 60 61 14 46 63 63 63 71 78 82 98 163 216 244 236 246 235 194 177 165 168 140 97 88 275 202 96 158 139 117 95 148 183 84 90 128 13 42 37 34
222 222 235 241 252 260 257 279 289 303 128 57 56 72 72 62 78 110 354 5 298 218 186 182 173 157 169 47 111 176 154 226 308 52 72 77 128 204 216 324 61 68 35 44 31
231 233 238 246 253 260 261 250 247 236 254 224 238 112 88 57 30 111 57 24 37 136 163 189 177 134 93 138 329 111 98 56 72 75 56 30 44 139 269 90 127 44 63 44 26
236 237 240 246 249 254 260 263 259 253 246 236 223 236 173 145 143 22 5 20 47 130 148 170 141 97 53 14 180 42 250 43 78 27 20 20 73 7 74 2 344 7 20 18 0
242 243 244 247 248 250 252 257 258 256 251 242 230 225 220 213 236 291 344 1 28 134 168 145 105 352 307 326 182 267 269 103 284 311 14 27 360 62 276 25 251 320 341 342 336
243 245 248 249 250 251 252 254 259 259 253 243 232 228 227 222 248 247 259 243 58 195 135 115 257 253 240 326 185 324 233 214 248 273 270 241 331 34 116 147 254 297 320 325 324
240 242 246 250 251 254 253 253 255 258 254 251 238 231 231 239 253 256 240 231 233 232 140 307 231 202 178 128 345 299 265 260 260 239 223 280 323 186 198 245 229 262 308 301 273
246 245 244 247 251 251 250 251 254 258 257 255 247 238 235 241 251 258 240 232 223 231 251 177 171 174 157 271 202 253 259 268 17 239 229 312 224 168 183 210 223 250 272 232 257
247 248 248 247 248 249 251 250 252 253 257 256 255 254 249 259 251 237 234 220 228 227 219 216 237 204 199 272 293 260 256 260 185 186 213 281 202 185 180 163 201 203 193 215 244
245 246 246 247 246 249 251 253 252 252 250 252 252 251 278 282 255 234 217 208 213 218 212 217 240 245 214 236 254 301 357 304 192 195 189 163 270 197 188 215 221 225 225 239 239
245 244 244 245 247 246 248 251 250 249 242 235 215 185 13 261 247 244 202 199 206 202 202 151 267 225 206 259 274 318 323 330 337 168 207 280 279 251 264 214 220 224 234 255 260
246 244 241 242 245 242 236 234 236 248 248 239 223 205 152 258 250 231 216 209 205 191 166 205 235 210 256 258 264 295 325 308 315 289 280 287 275 256 274 222 240 226 247 258 251
245 241 238 238 238 238 234 235 253 255 264 231 239 240 213 235 241 238 246 199 181 198 200 238 246 243 264 279 300 298 283 286 306 307 263 289 287 271 252 215 210 212 242 252 257
246 238 232 232 233 229 224 231 235 253 276 263 242 237 222 233 253 197 240 211 187 214 243 249 261 247 250 267 256 261 297 227 279 316 296 302 306 292 281 198 187 198 241 235 254
244 236 229 225 224 226 234 225 207 213 305 280 206 215 221 210 89 193 209 232 193 203 235 247 245 251 264 235 229 257 315 280 284 281 290 289 298 334 153 187 182 181 227 238 247
242 235 228 222 221 220 222 212 191 175 243 191 171 199 192 218 198 204 201 236 203 238 241 244 248 233 253 230 248 248 298 291 273 268 275 279 299 164 290 264 195 286 198 217 219
239 233 226 218 215 219 212 195 182 215 211 205 190 209 202 216 194 191 206 219 203 228 237 236 242 242 225 230 236 253 252 282 307 282 224 230 296 265 217 266 215 162 187 201 225
238 229 224 215 215 217 204 191 176 223 206 151 217 218 213 203 218 198 205 214 218 213 236 233 240 231 227 213 216 229 230 242 266 204 256 293 252 287 134 149 126 165 197 208 246
235 226 220 214 210 200 206 190 202 193 178 296 281 205 206 214 215 213 210 218 228 221 239 266 253 281 216 215 216 241 258 266 282 298 309 295 140 151 153 135 138 165 174 243 289
235 221 220 210 206 204 204 205 214 214 328 284 309 205 202 207 215 213 214 223 228 230 235 246 277 91 182 191 204 230 246 297 279 304 278 302 277 191 177 189 220 271 223 219 255
208 184 220 194 202 206 210 218 227 217 289 279 286 273 241 278 235 216 216 224 227 222 227 245 248 259 260 204 246 247 242 252 259 262 224 298 307 179 349 264 267 292 202 209 246
173 135 208 236 206 211 216 222 220 203 270 273 269 263 290 307 273 214 211 216 227 221 225 224 229 252 263 241 249 246 246 259 260 300 306 318 274 315 94 172 8 213 236 204 238
173 152 182 259 230 218 227 236 234 208 274 259 268 255 255 314 309 107 188 208 236 212 204 195 203 236 271 279 272 289 289 250 285 294 293 292 287 220 142 68 32 341 196 186 224
150 152 277 288 231 197 221 233 245 206 253 222 257 251 277 280 248 239 108 249 197 193 193 191 186 207 247 276 308 323 294 291 281 274 283 286 258 196 195 148 150 70 146 153 209
186 177 258 272 259 215 206 193 229 244 238 230 234 230 285 257 287 265 211 118 269 233 227 219 219 231 233 258 278 291 297 265 267 261 258 278 244 214 240 260 227 262 257 232 224
205 209 194 175 121 199 229 208 264 233 217 218 221 214 237 235 259 292 266 255 286 251 253 228 249 255 267 262 284 287 285 289 291 287 285 298 212 197 256 211 225 212 211 217 230
209 217 219 172 76 247 223 220 242 216 201 227 253 229 227 236 248 231 228 206 191 192 204 205 222 247 259 267 276 288 268 291 295 306 302 286 292 190 168 184 243 326 271 200 225
Height
3178 3178 3178 3179 3179 3180 3180 3180 3180 3179 3180 3180 3181 3181 3182 3182 3183 3185 3186 3187 3187 3189 3190 3192 3193 3196 3198 3201 3201 3203 3207 3207 3205 3196 3200 3199 3197 3197 3197 3199 3199 3198 3199 3198 3197
3177 3178 3179 3179 3179 3179 3180 3180 3180 3180 3181 3181 3181 3182 3182 3183 3184 3185 3187 3186 3187 3188 3189 3190 3191 3192 3195 3199 3200 3201 3199 3199 3200 3200 3201 3200 3195 3196 3198 3197 3197 3197 3198 3198 3199
3177 3178 3179 3179 3178 3179 3180 3180 3180 3180 3181 3181 3181 3183 3183 3183 3184 3185 3185 3186 3187 3187 3189 3191 3193 3194 3194 3198 3201 3202 3200 3198 3199 3200 3199 3200 3199 3197 3197 3196 3197 3198 3198 3198 3199
3176 3177 3177 3178 3178 3179 3180 3180 3180 3181 3181 3181 3182 3183 3183 3184 3186 3185 3186 3187 3188 3188 3190 3191 3193 3195 3194 3196 3198 3200 3199 3199 3201 3201 3200 3200 3199 3195 3195 3195 3195 3195 3197 3197 3198
3173 3175 3176 3177 3177 3179 3179 3179 3180 3180 3180 3181 3182 3182 3183 3184 3184 3185 3186 3188 3189 3188 3190 3191 3193 3195 3195 3196 3199 3199 3199 3199 3200 3200 3200 3200 3200 3199 3195 3194 3194 3194 3196 3197 3196
3171 3172 3174 3175 3176 3177 3177 3179 3179 3180 3180 3181 3181 3182 3183 3184 3183 3184 3186 3188 3190 3189 3190 3192 3191 3193 3194 3194 3197 3197 3197 3198 3198 3198 3199 3199 3199 3198 3197 3195 3193 3194 3194 3195 3195
3169 3170 3171 3172 3174 3175 3176 3177 3178 3179 3180 3180 3180 3181 3182 3183 3182 3184 3186 3187 3189 3189 3189 3192 3191 3193 3193 3193 3195 3197 3197 3197 3198 3197 3198 3198 3198 3198 3199 3194 3193 3194 3195 3195 3197
3166 3167 3168 3170 3171 3173 3174 3176 3177 3178 3179 3179 3179 3180 3181 3181 3182 3183 3183 3185 3187 3189 3189 3189 3191 3193 3195 3194 3194 3196 3196 3193 3196 3192 3197 3197 3197 3196 3196 3195 3194 3194 3194 3195 3195
3163 3164 3165 3167 3169 3170 3172 3174 3175 3176 3177 3178 3179 3180 3180 3181 3181 3182 3183 3184 3185 3188 3189 3190 3191 3192 3193 3193 3194 3194 3192 3190 3193 3196 3195 3195 3194 3194 3194 3193 3194 3194 3195 3196 3196
3159 3161 3163 3164 3166 3168 3169 3172 3173 3173 3175 3176 3177 3181 3179 3179 3179 3180 3182 3183 3185 3186 3188 3190 3190 3190 3192 3193 3192 3193 3190 3192 3189 3191 3192 3194 3193 3193 3193 3192 3192 3192 3193 3193 3194
3156 3158 3160 3161 3163 3166 3168 3169 3172 3172 3172 3175 3175 3176 3177 3178 3178 3178 3181 3182 3183 3186 3187 3189 3190 3189 3189 3191 3194 3192 3190 3190 3191 3192 3192 3192 3192 3191 3192 3190 3189 3190 3192 3192 3192
3153 3155 3157 3159 3161 3163 3165 3164 3167 3169 3168 3170 3172 3174 3174 3177 3177 3178 3180 3182 3182 3184 3186 3189 3187 3188 3190 3191 3191 3190 3190 3190 3190 3189 3189 3189 3190 3189 3189 3188 3187 3189 3190 3191 3191
3148 3151 3153 3156 3157 3160 3162 3162 3166 3165 3166 3167 3168 3170 3172 3175 3175 3176 3179 3180 3182 3184 3184 3187 3186 3190 3189 3189 3189 3190 3190 3188 3189 3187 3187 3188 3187 3185 3186 3186 3186 3188 3190 3190 3189
3144 3147 3150 3152 3157 3157 3158 3160 3162 3163 3164 3162 3163 3164 3168 3171 3171 3173 3176 3180 3180 3182 3184 3186 3185 3188 3188 3188 3189 3189 3189 3187 3187 3188 3188 3188 3184 3181 3179 3182 3185 3187 3188 3189 3189
3140 3143 3145 3149 3152 3153 3156 3158 3161 3163 3164 3160 3159 3162 3165 3168 3171 3171 3174 3177 3178 3181 3186 3185 3185 3186 3185 3187 3188 3189 3188 3187 3187 3187 3187 3185 3186 3183 3180 3181 3182 3183 3190 3190 3189
3136 3138 3141 3146 3148 3150 3152 3157 3160 3164 3160 3157 3155 3159 3163 3164 3168 3171 3173 3176 3179 3180 3181 3181 3182 3183 3184 3185 3186 3186 3186 3187 3186 3186 3186 3185 3185 3181 3179 3181 3180 3179 3184 3187 3188
3132 3134 3137 3141 3144 3147 3151 3154 3159 3157 3156 3155 3156 3158 3160 3163 3165 3169 3171 3173 3175 3178 3178 3178 3180 3181 3182 3184 3185 3185 3187 3186 3185 3184 3183 3181 3180 3181 3181 3185 3180 3178 3183 3184 3185
3128 3130 3133 3137 3141 3144 3148 3152 3152 3151 3151 3150 3156 3155 3157 3161 3163 3165 3169 3171 3173 3176 3178 3178 3177 3177 3177 3180 3182 3183 3184 3184 3186 3185 3182 3181 3178 3181 3177 3180 3180 3185 3183 3182 3184
3124 3126 3130 3133 3137 3141 3145 3145 3146 3147 3152 3150 3150 3152 3154 3157 3162 3163 3165 3168 3171 3173 3175 3174 3174 3173 3174 3177 3180 3181 3181 3183 3180 3179 3178 3177 3178 3179 3177 3177 3184 3186 3182 3183 3184
3121 3123 3126 3129 3133 3137 3140 3142 3143 3145 3148 3149 3147 3147 3151 3154 3158 3159 3162 3165 3167 3170 3171 3170 3174 3170 3172 3176 3178 3178 3180 3180 3179 3180 3181 3174 3175 3173 3175 3178 3177 3176 3182 3184 3184
3119 3121 3122 3127 3130 3133 3135 3138 3141 3144 3148 3147 3146 3145 3148 3150 3153 3154 3157 3161 3162 3165 3168 3168 3173 3171 3173 3174 3176 3176 3176 3176 3177 3178 3177 3177 3173 3173 3172 3170 3177 3176 3181 3184 3183
3118 3121 3124 3124 3129 3129 3130 3133 3139 3141 3143 3144 3145 3146 3149 3148 3146 3148 3153 3157 3157 3159 3162 3165 3168 3169 3172 3173 3172 3172 3173 3174 3174 3175 3174 3174 3173 3170 3171 3171 3172 3171 3165 3179 3183
3117 3119 3123 3124 3124 3125 3129 3132 3136 3139 3141 3144 3142 3146 3147 3147 3146 3145 3149 3151 3153 3153 3156 3159 3161 3166 3167 3169 3169 3168 3169 3170 3171 3171 3170 3173 3172 3167 3169 3170 3168 3159 3160 3174 3178
3118 3119 3120 3120 3121 3123 3127 3129 3132 3136 3139 3140 3141 3144 3145 3146 3146 3145 3146 3149 3151 3152 3155 3158 3161 3165 3168 3169 3169 3168 3168 3168 3169 3168 3168 3168 3167 3167 3168 3173 3175 3177 3173 3173 3179
3115 3115 3117 3118 3119 3121 3124 3127 3129 3133 3136 3139 3139 3141 3144 3144 3145 3145 3147 3149 3151 3151 3154 3156 3159 3162 3163 3163 3165 3165 3166 3166 3165 3164 3164 3163 3160 3162 3162 3164 3171 3172 3174 3178 3178
3110 3112 3115 3117 3117 3119 3123 3125 3128 3130 3133 3136 3137 3139 3142 3144 3147 3143 3143 3147 3148 3150 3152 3155 3156 3159 3160 3161 3163 3162 3161 3161 3161 3160 3159 3156 3158 3159 3162 3162 3160 3162 3165 3169 3172
3112 3113 3113 3115 3117 3120 3118 3123 3125 3127 3130 3134 3136 3138 3139 3137 3139 3142 3145 3145 3148 3150 3150 3152 3155 3158 3159 3160 3161 3161 3160 3161 3158 3154 3152 3152 3153 3155 3158 3161 3162 3157 3156 3167 3172